カタログに戻る

YUNHAI 3

運用中気象SSO
NORAD 54235·PAYLOAD·🇨🇳 China

打ち上げ Nov 11, 2022 から Taiyuan Satellite Launch Center

Loading…

次のパス (今後24時間)

TLE

最新Source: Space-Track

元期: Sep 14, 2026, 23:24 UTC

1 54235U 22151A   26257.97527414 -.00000013  00000-0  16376-4 0  9993
2 54235  98.8214 264.1191 0000984 153.9064 206.2158 14.13373277197623

AllMySatでYUNHAI 3をリアルタイム追跡

Download on the App Store